This demonstration page uses our WeatherBlox Daily Observations layout. Learn more.

Left ArrowRight Arrow

Hourly Observations for May 9, 2020

Temp ( °F °C ) Dew Point ( °F °C ) Humidity (%) Winds ( mph kmh ) Pressure ( in mb ) Visibility ( mi km ) Precip ( " mm )
12:53 am 00:53 Clear 58 14.4 34 1.1 41 41 E 10 17 30.12 1020 10 16 0.00 0.00
1:53 am 01:53 Clear 57 13.9 36 2.2 45 45 ESE 10 17 30.12 1020 10 16 0.00 0.00
2:53 am 02:53 Clear 55 12.8 36 2.2 49 49 E 9 15 30.10 1019 10 16 0.00 0.00
3:53 am 03:53 Clear 54 12.2 36 2.2 51 51 ESE 8 13 30.09 1019 10 16 0.00 0.00
4:53 am 04:53 Clear 52 11.1 36 2.2 55 55 SE 7 11 30.11 1020 10 16 0.00 0.00
5:53 am 05:53 Clear 52 11.1 36 2.2 55 55 ESE 10 17 30.10 1019 10 16 0.00 0.00
6:53 am 06:53 Clear 51 10.6 37 2.8 59 59 ESE 13 20 30.09 1019 10 16 0.00 0.00
7:53 am 07:53 Sunny 52 11.1 38 3.3 59 59 ESE 9 15 30.09 1019 10 16 0.00 0.00
8:53 am 08:53 Mostly Sunny 57 13.9 39 3.9 51 51 SE 17 28 30.09 1019 10 16 0.00 0.00
9:53 am 09:53 Sunny 61 16.1 40 4.4 46 46 ESE 15 24 30.09 1019 10 16 0.00 0.00
10:53 am 10:53 Sunny 66 18.9 41 5 40 40 SSE 13 20 30.07 1018 10 16 0.00 0.00
11:53 am 11:53 Sunny 69 20.6 40 4.4 35 35 SSE 12 19 30.06 1018 10 16 0.00 0.00
12:53 pm 12:53 Sunny 73 22.8 40 4.4 30 30 ESE 12 19 30.03 1017 10 16 0.00 0.00
1:43 pm 13:43 Mostly Sunny 76 24.4 39 3.9 26 26 ESE 9 15 29.94 1014 10 16 0.00 0.00
1:53 pm 13:53 Sunny 76 24.4 39 3.9 26 26 VRB 7 11 29.99 1016 10 16 0.00 0.00
2:53 pm 14:53 Sunny 81 27.2 40 4.4 23 23 ESE 10 17 29.96 1014 10 16 0.00 0.00
3:53 pm 15:53 Sunny 82 27.8 39 3.9 22 22 ESE 8 13 29.93 1013 10 16 0.00 0.00
4:53 pm 16:53 Sunny 84 28.9 39 3.9 20 20 ESE 10 17 29.91 1013 10 16 0.00 0.00
5:53 pm 17:53 Sunny 85 29.4 38 3.3 19 19 ESE 9 15 29.88 1012 10 16 0.00 0.00
6:53 pm 18:53 Sunny 84 28.9 38 3.3 19 19 ESE 14 22 29.89 1012 10 16 0.00 0.00
7:53 pm 19:53 Sunny 81 27.2 38 3.3 21 21 ESE 13 20 29.91 1013 10 16 0.00 0.00
8:53 pm 20:53 Clear 78 25.6 39 3.9 25 25 ESE 13 20 29.92 1013 10 16 0.00 0.00
9:53 pm 21:53 Clear 75 23.9 38 3.3 26 26 ESE 12 19 29.94 1014 10 16 0.00 0.00
10:53 pm 22:53 Clear 71 21.7 38 3.3 30 30 ESE 9 15 29.96 1015 10 16 0.00 0.00
11:53 pm 23:53 Clear 70 21.1 40 4.4 34 34 ESE 14 22 29.97 1015 10 16 0.00 0.00

Powered by AerisWeather